Regional Weather Roundup
Issued by NWS

Home | Current Version | Previous Version | Graphics & Text | Print | Product List | Glossary On
Versions: 1 2 3 4 5 6 7 8 9 10 11 12 13 14 15 16 17 18 19 20 21 22 23 24 25 26 27 28 29 30 31 32 33 34 35 36 37 38 39 40 41 42 43 44 45 46 47 48 49 50
000
ASUS43 KDMX 040907
RWRIA

WEATHER ROUNDUP FOR IOWA
NATIONAL WEATHER SERVICE DES MOINES IA
400 AM CDT MON MAY 04 2015

NOTE: "FAIR" INDICATES FEW OR NO CLOUDS BELOW 12,000 FEET WITH NO
SIGNIFICANT WEATHER AND/OR OBSTRUCTIONS TO VISIBILITY.

* - THESE STATIONS ARE NOT NWS STATIONS...THUS NOT UNDER NWS
QUALITY CONTROL.  THEY ALSO DO NOT REPORT WEATHER SUCH
AS PRECIPITATION OR FOG.

IAZ001>003-012>014-020>022-031>034-043>046-041000-
   NORTHWEST IOWA

CITY           SKY/WX    TMP DP  RH WIND       PRES   REMARKS
CARROLL *      CLOUDY    59  52  77 N12       29.96R
CHEROKEE *     CLOUDY    57  34  41 N7        30.02R THUNDER
DENISON *      CLOUDY    59  52  77 N10       29.95R
LE MARS *      PTCLDY    55  32  41 N10       30.03R
ORANGE CITY *  CLEAR     54  30  40 N8        30.03R
SHELDON *      CLEAR     54  32  43 N16       30.01R
SIOUX CITY     LGT RAIN  59  36  42 N14       30.01R
SPENCER        MOCLDY    54  36  50 N13       30.01R
STORM LAKE *   LGT RAIN  55  43  62 N17       30.01R
$$

IAZ055>058-069>071-079>083-090>094-041000-
   SOUTHWEST IOWA

CITY           SKY/WX    TMP DP  RH WIND       PRES   REMARKS
ATLANTIC *     CLEAR     61  57  88 NE10      29.93S
AUDUBON *      CLEAR     57  54  88 N10       29.95R
CLARINDA *     CLOUDY    64  57  77 N5        29.94R
COUNCIL BLFS * CLEAR     59  59 100 NE7       29.94F
CRESTON *      MOCLDY    64  59  82 SW7       29.94R
HARLAN  *      CLEAR     59  59 100 NE10      29.97S
LAMONI         CLOUDY    67  60  78 SW14G20   29.92R
RED OAK *      CLOUDY    63  59  88 N9        29.93S
SHENANDOAH *   PTCLDY    61  57  88 NE6       29.92F
$$

IAZ047>049-059>061-072>074-084-041000-
   CENTRAL IOWA

CITY           SKY/WX    TMP DP  RH WIND       PRES   REMARKS
AMES           CLOUDY    62  54  74 N10       29.93R
ANKENY *       MOCLDY    63  55  77 E8G16     29.92R
CHARITON *     CLOUDY    66  59  77 SW5       29.93R
DES MOINES     CLOUDY    64  54  69 E10       29.92R
GRINNELL*      CLOUDY    59  55  88 NE8       29.96R
KNOXVILLE *    CLOUDY    66  59  77 NE3       29.91R
MARSHALLTOWN   CLOUDY    61  56  83 SE12      29.91S
PELLA *        CLOUDY    63  59  88 E5        29.94R
PERRY *          N/A     63  55  77 N8        29.94R
$$

IAZ004>006-015-016-023>025-035-036-041000-
   NORTH CENTRAL IOWA

CITY           SKY/WX    TMP DP  RH WIND       PRES   REMARKS
ALGONA *       MOCLDY    55  48  76 N12       29.98S
CLARION *      MOCLDY    57  55  94 N14       29.95S
ESTHERVILLE    PTCLDY    52  32  46 N10       30.00R
FORT DODGE *   CLOUDY    57  50  77 E8        29.95R
MASON CITY     MOCLDY    55  52  89 N8        29.98R
FOREST CITY *  CLOUDY    54  48  82 N10       29.97R
IOWA FALLS *     N/A     59  57  94 N8        29.95R
$$

IAZ007>011-017>019-026>030-037>042-050>054-066-041000-
   NORTHEAST IOWA

CITY           SKY/WX    TMP DP  RH WIND       PRES   REMARKS
CEDAR RAPIDS   RAIN     N/A N/A N/A MISG        N/A
CHARLES CITY * PTCLDY    57  57 100 N7        29.95R
CLINTON *      CLOUDY    57  55  94 S14       29.96R
DECORAH *      MOCLDY    57  57 100 CALM      29.96R FOG
DUBUQUE        CLOUDY    56  55  97 CALM      29.94R
MONTICELLO *   CLOUDY    59  59 100 W5        29.95R
OELWEIN *      CLOUDY    59  59 100 SE9       29.94R
WATERLOO       LGT RAIN  60  58  92 N14G21    29.90F
$$

IAZ064-065-067-068-078-041000-
   EAST CENTRAL IOWA

CITY           SKY/WX    TMP DP  RH WIND       PRES   REMARKS
DAVENPORT      LGT RAIN  59  57  93 SE13      29.93F
IOWA CITY      CLOUDY    60  58  92 E3        29.97R
MT. PLEASANT * CLOUDY    63  55  77 SE9       29.95S
MUSCATINE *    CLOUDY    61  57  88 CALM      29.96R
QUAD CITIES    CLOUDY    60  57  89 E7        29.95R
$$

IAZ062-063-075>077-085>089-095>099-041000-
   SOUTHEAST IOWA

CITY           SKY/WX    TMP DP  RH WIND       PRES   REMARKS
BURLINGTON     CLOUDY    63  56  78 E17       29.95F
FAIRFIELD *    CLOUDY    63  55  77 SE8       29.95R
FORT MADISON * CLOUDY    66  55  68 E10       29.97R
KEOKUK *       CLOUDY    68  57  68 VRB5      29.95R
OSKALOOSA *      N/A     63  55  77 SE12      29.94R
CENTERVILLE *  CLEAR     66  63  88 W6        29.96R
OTTUMWA        CLOUDY    63  57  81 SE7       29.93R
WASHINGTON *   MOCLDY    61  61 100 SE9       29.94R
$$

ABBREVIATIONS USED IN REMARKS
   TC - TEMPERATURES IN CELSIUS
  WCI - WIND CHILL INDEX
   HX - HEAT INDEX
  VSB - VISIBILITY
$$



USA.gov is the U.S. government's official web portal to all federal, state and local government web resources and services.